FW6720 Weather Reports


Display with metric or nautical units.
time (UTC)temp
F
wind
direction
speed
MPH
gust
MPH
rain 1hr
in
rain 24hr
in
rain mn
in
humidity
%
barometer
mb
20260902002748 62 61 0.0 0.0 0.00 0.00 0.00 70 1013.4
20260902002247 62 61 0.0 0.0 0.00 0.00 0.00 70 1013.4
20260902001743 63 53 0.0 0.0 0.00 0.00 0.00 70 1013.2
20260902001238 63 54 0.0 1.0 0.00 0.00 0.00 69 1013.5
20260902000738 63 52 0.0 0.0 0.00 0.00 0.00 68 1013.2
20260902000233 63 46 0.0 0.0 0.00 0.00 0.00 67 1013.3
20260901235727 64 4 0.0 0.0 0.00 0.00 0.00 66 1013.1
20260901235222 64 14 0.0 0.0 0.00 0.00 0.00 66 1013.3
20260901234722 64 59 0.0 0.0 0.00 0.00 0.00 67 1013.1
20260901234222 64 56 0.0 0.0 0.00 0.00 0.00 67 1013.3
20260901233716 64 55 0.0 0.0 0.00 0.00 0.00 68 1012.9
20260901233212 64 63 0.0 0.0 0.00 0.00 0.00 68 1013.2
20260901232707 64 53 0.0 0.0 0.00 0.00 0.00 67 1013.4
20260901232202 64 55 0.0 0.0 0.00 0.00 0.00 68 1013.2
20260901231659 64 46 0.0 3.0 0.00 0.00 0.00 68 1013.3
20260901231154 64 32 0.0 0.0 0.00 0.00 0.00 68 1013.2
20260901230650 64 61 1.0 3.0 0.00 0.00 0.00 67 1013.2
20260901230150 64 13 0.0 0.0 0.00 0.00 0.00 68 1013.3
20260901225645 64 47 1.0 2.0 0.00 0.00 0.00 67 1013.4
20260901225139 65 56 0.0 0.0 0.00 0.00 0.00 67 1013.3
20260901224636 65 55 0.0 0.0 0.00 0.00 0.00 67 1013.3
20260901224132 65 55 0.0 2.0 0.00 0.00 0.00 67 1013.4
20260901223627 64 54 0.0 0.0 0.00 0.00 0.00 68 1013.3
20260901223122 64 57 0.0 0.0 0.00 0.00 0.00 69 1013.4
20260901222618 64 53 0.0 0.0 0.00 0.00 0.00 69 1013.4
20260901222114 64 48 0.0 0.0 0.00 0.00 0.00 70 1013.3
20260901221610 63 54 0.0 0.0 0.00 0.00 0.00 71 1013.4
20260901221106 63 60 0.0 0.0 0.00 0.00 0.00 73 1013.3
20260901220604 63 60 0.0 0.0 0.00 0.00 0.00 77 1013.5
20260901220104 62 60 0.0 0.0 0.00 0.00 0.00 80 1013.5
20260901215602 62 59 0.0 0.0 0.00 0.00 0.00 79 1013.5
20260901215056 62 60 0.0 0.0 0.00 0.00 0.00 78 1013.4
20260901214555 63 61 0.0 0.0 0.00 0.00 0.00 77 1013.3
20260901214050 64 60 0.0 0.0 0.00 0.00 0.00 75 1013.2
20260901213549 64 60 0.0 0.0 0.00 0.00 0.00 74 1013.1
20260901213044 64 60 0.0 0.0 0.00 0.00 0.00 72 1013.1
20260901212544 64 60 0.0 0.0 0.00 0.00 0.00 72 1013.4
20260901212040 65 60 0.0 0.0 0.00 0.00 0.00 71 1013.2
20260901211535 64 60 0.0 0.0 0.00 0.00 0.00 70 1013.2
20260901211032 64 60 0.0 0.0 0.00 0.00 0.00 70 1013.4
20260901210526 64 62 0.0 0.0 0.00 0.00 0.00 70 1013.5
20260901210023 64 7 0.0 0.0 0.00 0.00 0.00 72 1013.2
20260901205518 64 6 0.0 0.0 0.00 0.00 0.00 73 1013.4
20260901205012 64 6 0.0 0.0 0.00 0.00 0.00 73 1013.5
20260901204509 64 6 0.0 0.0 0.00 0.00 0.00 72 1013.4
20260901204009 64 6 0.0 0.0 0.00 0.00 0.00 74 1013.4
20260901203503 63 6 0.0 0.0 0.00 0.00 0.00 74 1013.3
20260901202958 63 5 0.0 0.0 0.00 0.00 0.00 76 1013.3
20260901202454 63 5 0.0 0.0 0.00 0.00 0.00 77 1013.7
20260901201949 63 5 0.0 0.0 0.00 0.00 0.00 75 1013.4
20260901201443 63 5 0.0 0.0 0.00 0.00 0.00 73 1013.3
20260901200938 63 5 0.0 0.0 0.00 0.00 0.00 73 1013.6
20260901200433 63 5 0.0 0.0 0.00 0.00 0.00 73 1013.5
20260901195932 63 5 0.0 0.0 0.00 0.00 0.00 72 1013.4
20260901195431 63 5 0.0 0.0 0.00 0.00 0.00 72 1013.4
20260901194926 63 5 0.0 0.0 0.00 0.00 0.00 74 1013.5
20260901194420 63 5 0.0 0.0 0.00 0.00 0.00 72 1013.6
20260901193917 64 4 0.0 0.0 0.00 0.00 0.00 72 1013.4
20260901193416 63 5 0.0 0.0 0.00 0.00 0.00 74 1013.4
20260901192916 63 55 0.0 0.0 0.00 0.00 0.00 73 1013.5
20260901192412 62 5 0.0 0.0 0.00 0.00 0.00 73 1013.8
20260901191908 62 5 0.0 0.0 0.00 0.00 0.00 74 1013.7
20260901191403 63 5 0.0 0.0 0.00 0.00 0.00 74 1013.5
20260901190858 63 5 0.0 0.0 0.00 0.00 0.00 74 1013.8
20260901190353 63 4 0.0 0.0 0.00 0.00 0.00 73 1013.8
20260901185851 63 5 0.0 0.0 0.00 0.00 0.00 74 1013.9
20260901185350 62 6 0.0 0.0 0.00 0.00 0.00 74 1013.8
20260901184845 62 5 0.0 0.0 0.00 0.00 0.00 74 1013.9
20260901184341 62 5 0.0 0.0 0.00 0.00 0.00 76 1014.0
20260901183836 61 5 0.0 0.0 0.00 0.00 0.00 76 1013.9
20260901183335 62 5 0.0 0.0 0.00 0.00 0.00 77 1014.1
20260901182832 62 5 0.0 0.0 0.00 0.00 0.00 78 1014.1
20260901182331 61 5 0.0 0.0 0.00 0.00 0.00 78 1014.0
20260901181827 61 5 0.0 0.0 0.00 0.00 0.00 79 1013.9
20260901181321 61 5 0.0 0.0 0.00 0.00 0.00 79 1014.2
20260901180815 61 5 0.0 0.0 0.00 0.00 0.00 79 1014.0
20260901180314 60 5 0.0 0.0 0.00 0.00 0.00 80 1014.0
20260901175813 60 5 0.0 0.0 0.00 0.00 0.00 81 1014.0
20260901175308 60 5 0.0 0.0 0.00 0.00 0.00 81 1013.9
20260901174803 60 5 0.0 0.0 0.00 0.00 0.00 81 1013.9
20260901174259 60 5 0.0 0.0 0.00 0.00 0.00 80 1013.8
20260901173754 60 5 0.0 0.0 0.00 0.00 0.00 79 1013.8
20260901173249 60 5 0.0 0.0 0.00 0.00 0.00 79 1014.0
20260901172746 60 5 0.0 0.0 0.00 0.00 0.00 79 1013.8
20260901172244 60 5 0.0 0.0 0.00 0.00 0.00 79 1013.7
20260901171743 60 5 0.0 0.0 0.00 0.00 0.00 79 1013.6
20260901171242 60 5 0.0 0.0 0.00 0.00 0.00 79 1013.9
20260901170741 60 5 0.0 0.0 0.00 0.00 0.00 80 1013.7
20260901170236 60 5 0.0 0.0 0.00 0.00 0.00 79 1013.6
20260901165734 60 5 0.0 0.0 0.00 0.00 0.00 78 1013.6
20260901165229 60 5 0.0 0.0 0.00 0.00 0.00 78 1013.8
20260901164726 61 62 0.0 0.0 0.00 0.00 0.00 78 1013.6
20260901164221 60 61 0.0 0.0 0.00 0.00 0.00 78 1013.6
20260901163716 60 61 0.0 0.0 0.00 0.00 0.00 78 1013.9
20260901163215 59 61 0.0 0.0 0.00 0.00 0.00 79 1013.7
20260901162710 59 61 0.0 0.0 0.00 0.00 0.00 80 1013.7
20260901162209 59 62 0.0 0.0 0.00 0.00 0.00 80 1013.7
20260901161708 59 61 0.0 0.0 0.00 0.00 0.00 80 1013.9
20260901161203 59 62 0.0 0.0 0.00 0.00 0.00 80 1013.7
20260901160700 59 61 0.0 0.0 0.00 0.00 0.00 80 1013.6
20260901160154 59 62 0.0 0.0 0.00 0.00 0.00 80 1014.0
20260901155653 59 62 0.0 0.0 0.00 0.00 0.00 80 1014.0
20260901155149 59 61 0.0 0.0 0.00 0.00 0.00 80 1013.7
20260901154644 59 62 0.0 0.0 0.00 0.00 0.00 80 1013.8
20260901154139 59 62 0.0 0.0 0.00 0.00 0.00 80 1013.9
20260901153634 59 62 0.0 0.0 0.00 0.00 0.00 80 1013.7
20260901153133 59 61 0.0 0.0 0.00 0.00 0.00 80 1013.8
20260901152628 59 61 0.0 0.0 0.00 0.00 0.00 80 1014.1
20260901152126 59 61 0.0 0.0 0.00 0.00 0.00 80 1013.9
20260901151623 59 61 0.0 0.0 0.00 0.00 0.00 81 1013.8
20260901151122 58 61 0.0 0.0 0.00 0.00 0.00 81 1013.8
20260901150621 58 61 0.0 0.0 0.00 0.00 0.00 81 1013.7
20260901150114 58 61 0.0 0.0 0.00 0.00 0.00 81 1013.8
20260901145613 58 61 0.0 0.0 0.00 0.00 0.00 82 1013.8
20260901145112 58 62 0.0 0.0 0.00 0.00 0.00 83 1013.7
20260901144608 58 61 0.0 0.0 0.00 0.00 0.00 82 1013.6
20260901144103 58 61 0.0 0.0 0.00 0.00 0.00 83 1013.5
20260901143558 57 61 0.0 0.0 0.00 0.00 0.00 83 1013.7
20260901143054 57 61 0.0 0.0 0.00 0.00 0.00 83 1013.6
20260901142550 57 62 0.0 0.0 0.00 0.00 0.00 83 1013.8
20260901142049 57 61 0.0 0.0 0.00 0.00 0.00 83 1013.7
20260901141544 57 61 0.0 0.0 0.00 0.00 0.00 83 1013.6
20260901141039 57 62 0.0 0.0 0.00 0.00 0.00 83 1013.6
20260901140538 57 62 0.0 0.0 0.00 0.00 0.00 83 1013.8
20260901140032 57 61 0.0 0.0 0.00 0.00 0.00 83 1013.6
20260901135531 57 62 0.0 0.0 0.00 0.00 0.00 83 1013.6
20260901135027 57 62 0.0 0.0 0.00 0.00 0.00 83 1013.6
20260901134523 57 62 0.0 0.0 0.00 0.00 0.00 83 1013.3
20260901134023 57 62 0.0 0.0 0.00 0.00 0.00 83 1013.6
20260901133522 57 62 0.0 0.0 0.00 0.00 0.00 83 1013.5
20260901133020 57 62 0.0 0.0 0.00 0.00 0.00 83 1013.6
20260901132515 57 62 0.0 0.0 0.00 0.00 0.00 83 1013.4
20260901132014 57 62 0.0 0.0 0.00 0.00 0.00 83 1013.4
20260901131509 57 62 0.0 0.0 0.00 0.00 0.00 83 1013.5
20260901131005 57 62 0.0 0.0 0.00 0.00 0.00 83 1013.4
20260901130459 57 62 0.0 0.0 0.00 0.00 0.00 83 1013.5
20260901125956 57 62 0.0 0.0 0.00 0.00 0.00 83 1013.6
20260901125451 57 62 0.0 0.0 0.00 0.00 0.00 83 1013.4
20260901124951 57 62 0.0 0.0 0.00 0.00 0.00 83 1013.5
20260901124446 57 62 0.0 0.0 0.00 0.00 0.00 83 1013.3
20260901123941 57 62 0.0 0.0 0.00 0.00 0.00 83 1013.4
20260901123436 57 62 0.0 0.0 0.00 0.00 0.00 84 1013.5
20260901122934 57 62 0.0 0.0 0.00 0.00 0.00 84 1013.4
20260901122434 57 62 0.0 0.0 0.00 0.00 0.00 84 1013.3
20260901121933 56 62 0.0 0.0 0.00 0.00 0.00 84 1013.4
20260901121428 56 62 0.0 0.0 0.00 0.00 0.00 84 1013.2
20260901120923 56 62 0.0 0.0 0.00 0.00 0.00 84 1013.4
20260901120423 56 62 0.0 0.0 0.00 0.00 0.00 84 1013.4
20260901115919 56 62 0.0 0.0 0.00 0.00 0.00 84 1013.1
20260901115418 56 62 0.0 0.0 0.00 0.00 0.00 84 1013.0
20260901114916 56 62 0.0 0.0 0.00 0.00 0.00 84 1013.2
20260901114412 56 62 0.0 0.0 0.00 0.00 0.00 84 1013.1
20260901113910 56 62 0.0 0.0 0.00 0.00 0.00 84 1013.4
20260901113409 56 62 0.0 0.0 0.00 0.00 0.00 84 1013.3
20260901112904 56 62 0.0 0.0 0.00 0.00 0.00 84 1013.3
20260901112359 55 62 0.0 0.0 0.00 0.00 0.00 85 1013.1
20260901111854 55 62 0.0 0.0 0.00 0.00 0.00 85 1013.4
20260901111352 55 62 0.0 0.0 0.00 0.00 0.00 85 1013.3
20260901110851 55 62 0.0 0.0 0.00 0.00 0.00 85 1013.1
20260901110347 55 62 0.0 0.0 0.00 0.00 0.00 85 1013.2
20260901105843 55 62 0.0 0.0 0.00 0.00 0.00 86 1013.0
20260901105338 55 62 0.0 0.0 0.00 0.00 0.00 85 1013.1
20260901104834 55 62 0.0 0.0 0.00 0.00 0.00 85 1012.9
20260901104330 55 62 0.0 0.0 0.00 0.00 0.00 85 1013.0
20260901103825 55 62 0.0 0.0 0.00 0.00 0.00 85 1013.1
20260901103324 55 62 0.0 0.0 0.00 0.00 0.00 85 1012.9
20260901102820 55 62 0.0 0.0 0.00 0.00 0.00 85 1013.1
20260901102314 55 62 0.0 0.0 0.00 0.00 0.00 85 1013.0
20260901101810 55 62 0.0 0.0 0.00 0.00 0.00 85 1012.9
20260901101309 55 62 0.0 0.0 0.00 0.00 0.00 85 1013.1
20260901100809 55 62 0.0 0.0 0.00 0.00 0.00 85 1012.9
20260901100304 55 62 0.0 0.0 0.00 0.00 0.00 85 1013.1
20260901095802 55 62 0.0 0.0 0.00 0.00 0.00 85 1013.1
20260901095300 55 62 0.0 0.0 0.00 0.00 0.00 85 1013.0
20260901094754 55 62 0.0 0.0 0.00 0.00 0.00 85 1013.0
20260901094249 55 62 0.0 0.0 0.00 0.00 0.00 85 1012.7
20260901093744 55 62 0.0 0.0 0.00 0.00 0.00 85 1012.7
20260901093243 55 62 0.0 0.0 0.00 0.00 0.00 85 1012.8
20260901092740 55 62 0.0 0.0 0.00 0.00 0.00 84 1012.4
20260901092235 56 62 0.0 0.0 0.00 0.00 0.00 84 1012.7
20260901091731 56 62 0.0 0.0 0.00 0.00 0.00 84 1012.9
20260901091226 56 62 0.0 0.0 0.00 0.00 0.00 84 1013.0
20260901090720 56 62 0.0 0.0 0.00 0.00 0.00 84 1012.8
20260901090216 56 62 0.0 0.0 0.00 0.00 0.00 84 1012.8
20260901085712 56 62 0.0 0.0 0.00 0.00 0.00 84 1012.8
20260901085207 56 62 0.0 0.0 0.00 0.00 0.00 83 1012.9
20260901084703 56 62 0.0 0.0 0.00 0.00 0.00 83 1012.9
20260901084200 56 62 0.0 0.0 0.00 0.00 0.00 83 1012.8
20260901083659 56 62 0.0 0.0 0.00 0.00 0.00 83 1012.6
20260901083158 57 62 0.0 0.0 0.00 0.00 0.00 83 1012.7
20260901082652 57 62 0.0 0.0 0.00 0.00 0.00 83 1012.6
20260901082147 57 62 0.0 0.0 0.00 0.00 0.00 83 1012.8
20260901081643 57 62 0.0 0.0 0.00 0.00 0.00 82 1012.6
20260901081142 57 62 0.0 0.0 0.00 0.00 0.00 82 1012.7
20260901080637 57 62 0.0 0.0 0.00 0.00 0.00 82 1012.8
20260901080136 57 62 0.0 0.0 0.00 0.00 0.00 82 1012.4
20260901075631 57 62 0.0 0.0 0.00 0.00 0.00 81 1012.6
20260901075131 57 62 0.0 0.0 0.00 0.00 0.00 81 1012.6
20260901074630 58 62 0.0 0.0 0.00 0.00 0.00 81 1012.6
20260901074125 58 62 0.0 0.0 0.00 0.00 0.00 81 1012.3
20260901073622 58 62 0.0 0.0 0.00 0.00 0.00 81 1012.3
20260901073118 58 62 0.0 0.0 0.00 0.00 0.00 80 1012.2
20260901072613 59 62 0.0 0.0 0.00 0.00 0.00 79 1012.0
20260901072108 59 62 0.0 0.0 0.00 0.00 0.00 79 1012.1
20260901071607 59 62 0.0 0.0 0.00 0.00 0.00 79 1012.1
20260901071107 59 62 0.0 0.0 0.00 0.00 0.00 79 1012.0
20260901070601 59 62 0.0 0.0 0.00 0.00 0.00 79 1011.9
20260901070057 59 62 0.0 0.0 0.00 0.00 0.00 79 1011.8
20260901065551 59 62 0.0 0.0 0.00 0.00 0.00 79 1011.7
20260901065051 59 62 0.0 0.0 0.00 0.00 0.00 78 1011.9
20260901064548 59 62 0.0 0.0 0.00 0.00 0.00 78 1011.9
20260901064044 60 62 0.0 0.0 0.00 0.00 0.00 78 1011.7
20260901063541 60 62 0.0 0.0 0.00 0.00 0.00 78 1011.9
20260901063037 60 62 0.0 0.0 0.00 0.00 0.00 77 1011.4
20260901062532 60 62 0.0 0.0 0.00 0.00 0.00 77 1011.5
20260901062028 60 62 0.0 0.0 0.00 0.00 0.00 77 1011.4
20260901061525 60 62 0.0 0.0 0.00 0.00 0.00 76 1011.4
20260901061024 61 62 0.0 0.0 0.00 0.00 0.00 76 1011.4
20260901060519 61 62 0.0 0.0 0.00 0.00 0.00 75 1011.5
20260901060014 62 62 0.0 0.0 0.00 0.00 0.00 74 1011.3
20260901055509 62 62 0.0 0.0 0.00 0.00 0.00 73 1011.5
20260901055006 62 62 0.0 0.0 0.00 0.00 0.00 73 1011.5
20260901054457 62 62 0.0 0.0 0.00 0.00 0.00 73 1011.3
20260901053953 62 62 0.0 0.0 0.00 0.00 0.00 73 1011.5
20260901053448 63 62 0.0 0.0 0.00 0.00 0.00 72 1011.7
20260901052944 63 62 0.0 0.0 0.00 0.00 0.00 72 1011.5
20260901052439 63 62 0.0 0.0 0.00 0.00 0.00 71 1011.4
20260901051938 63 62 0.0 0.0 0.00 0.00 0.00 71 1011.5
20260901051434 64 62 0.0 0.0 0.00 0.00 0.00 71 1011.4
20260901050933 64 62 0.0 0.0 0.00 0.00 0.00 70 1011.4
20260901050429 64 62 0.0 0.0 0.00 0.00 0.00 70 1011.5
20260901045928 64 62 0.0 0.0 0.00 0.00 0.00 70 1011.5
20260901045424 64 62 0.0 0.0 0.00 0.00 0.00 69 1011.4
20260901044918 65 62 0.0 0.0 0.00 0.00 0.00 69 1011.6
20260901044414 65 62 0.0 0.0 0.00 0.00 0.00 68 1011.7
20260901043910 65 62 0.0 0.0 0.00 0.00 0.00 68 1011.6
20260901043407 65 62 0.0 0.0 0.00 0.00 0.00 67 1011.3
20260901042906 66 62 0.0 0.0 0.00 0.00 0.00 67 1011.3
20260901042401 66 62 0.0 0.0 0.00 0.00 0.00 66 1010.8
20260901041857 66 62 0.0 0.0 0.00 0.00 0.00 65 1011.0
20260901041357 66 62 0.0 0.0 0.00 0.00 0.00 66 1011.1
20260901040851 66 62 0.0 0.0 0.00 0.00 0.00 66 1011.0
20260901040350 65 62 0.0 0.0 0.00 0.00 0.00 68 1011.0
20260901035844 65 62 0.0 0.0 0.00 0.00 0.00 69 1010.9
20260901035343 65 62 0.0 0.0 0.00 0.00 0.00 69 1010.7
20260901034836 65 62 0.0 0.0 0.00 0.00 0.00 69 1010.4
20260901034331 65 62 0.0 0.0 0.00 0.00 0.00 70 1010.3
20260901033831 66 62 0.0 0.0 0.00 0.00 0.00 69 1010.4
20260901033331 66 62 0.0 0.0 0.00 0.00 0.00 68 1010.2
20260901032829 67 62 0.0 0.0 0.00 0.00 0.00 67 1010.0
20260901032328 68 62 0.0 0.0 0.00 0.00 0.00 66 1010.4
20260901031824 68 62 0.0 0.0 0.00 0.00 0.00 63 1010.2
20260901031320 69 62 0.0 0.0 0.00 0.00 0.00 63 1010.2
20260901030819 69 62 0.0 0.0 0.00 0.00 0.00 61 1010.0
20260901030315 70 62 0.0 0.0 0.00 0.00 0.00 61 1010.3
20260901025814 70 62 0.0 0.0 0.00 0.00 0.00 60 1010.2
20260901025309 70 62 0.0 0.0 0.00 0.00 0.00 60 1010.3
20260901024803 71 62 0.0 0.0 0.00 0.00 0.00 59 1010.0
20260901024302 71 62 0.0 0.0 0.00 0.00 0.00 58 1010.2
20260901023800 72 62 0.0 0.0 0.00 0.00 0.00 57 1010.3
20260901023250 72 62 0.0 0.0 0.00 0.00 0.00 57 1010.1
20260901022745 73 62 0.0 0.0 0.00 0.00 0.00 56 1010.1
20260901022241 73 62 0.0 0.0 0.00 0.00 0.00 55 1010.0
20260901021736 73 62 0.0 0.0 0.00 0.00 0.00 55 1010.0
20260901021231 74 62 0.0 0.0 0.00 0.00 0.00 54 1010.1
20260901020727 74 62 0.0 0.0 0.00 0.00 0.00 53 1009.9
20260901020222 75 62 0.0 0.0 0.00 0.00 0.00 53 1010.2
20260901015717 75 62 0.0 0.0 0.00 0.00 0.00 52 1009.9
20260901015212 76 62 0.0 0.0 0.00 0.00 0.00 51 1009.8
20260901014707 76 62 0.0 0.0 0.00 0.00 0.00 51 1009.8
20260901014203 77 62 0.0 0.0 0.00 0.00 0.00 51 1010.0
20260901013658 77 62 0.0 0.0 0.00 0.00 0.00 49 1009.6
20260901013154 78 62 0.0 0.0 0.00 0.00 0.00 49 1009.8
20260901012649 78 62 0.0 0.0 0.00 0.00 0.00 48 1009.7
20260901012143 78 61 2.0 2.0 0.00 0.00 0.00 47 1010.0
20260901011640 79 62 0.0 0.0 0.00 0.00 0.00 48 1009.9
20260901011138 79 62 0.0 0.0 0.00 0.00 0.00 46 1009.5
20260901010633 80 62 0.0 0.0 0.00 0.00 0.00 46 1009.8
20260901010127 80 62 0.0 0.0 0.00 0.00 0.00 45 1009.6
20260901005626 81 62 0.0 0.0 0.00 0.00 0.00 44 1009.5
20260901005122 81 62 0.0 0.0 0.00 0.00 0.00 42 1009.6
20260901004621 81 62 0.0 0.0 0.00 0.00 0.00 43 1009.4
20260901004116 81 62 0.0 0.0 0.00 0.00 0.00 41 1009.5
20260901003611 80 62 0.0 0.0 0.00 0.00 0.00 42 1009.4
20260901003109 80 62 0.0 0.0 0.00 0.00 0.00 41 1009.5